This is the latest recevied weather packets stored in our database for station/object NC4M. If no packets are shown the sender has not sent any weather packets the latest 10 day(s).
| Time | Temp. | Humidity | Pressure | Rain* | Wind** | Luminosity | Snow |
|---|---|---|---|---|---|---|---|
| 1778040866 | 6.67° C | 94% | 1012.7 hPa | 1.27 mm | - | 0 W/m² | - |
| 1778040564 | 6.67° C | 94% | 1012.7 hPa | 1.27 mm | - | 0 W/m² | - |
| 1778040261 | 6.67° C | 94% | 1013.1 hPa | 0 mm | - | 0 W/m² | - |
| 1778039957 | 6.67° C | 94% | 1013.1 hPa | 0 mm | - | 0 W/m² | - |
| 1778039655 | 6.67° C | 94% | 1012.9 hPa | 1.78 mm | - | 0 W/m² | - |
| 1778039351 | 6.67° C | 94% | 1013 hPa | 1.78 mm | - | 0 W/m² | - |
| 1778039048 | 6.11° C | 94% | 1013.2 hPa | 0 mm | - | 0 W/m² | - |
| 1778038745 | 6.67° C | 94% | 1013.3 hPa | 1.27 mm | - | 0 W/m² | - |
| 1778038442 | 6.67° C | 94% | 1012.9 hPa | 1.27 mm | - | 0 W/m² | - |
| 1778038139 | 6.67° C | 94% | 1013 hPa | 0 mm | - | 0 W/m² | - |
| 1778037836 | 6.67° C | 94% | 1013.1 hPa | 1.78 mm | - | 0 W/m² | - |
| 1778037533 | 6.67° C | 94% | 1012.4 hPa | 1.27 mm | - | 0 W/m² | - |
| 1778037230 | 6.67° C | 94% | 1013.3 hPa | 1.27 mm | - | 0 W/m² | - |
| 1778036928 | 6.67° C | 94% | 1013.2 hPa | 1.78 mm | - | 0 W/m² | - |
| 1778036626 | 6.11° C | 94% | 1013.3 hPa | 0 mm | - | 0 W/m² | - |
| 1778036322 | 6.11° C | 94% | 1013.1 hPa | 0 mm | - | 0 W/m² | - |
| 1778036018 | 6.11° C | 94% | 1012.9 hPa | 0 mm | - | 0 W/m² | - |
| 1778035716 | 6.11° C | 94% | 1013.1 hPa | 1.27 mm | - | 0 W/m² | - |
| 1778035412 | 6.67° C | 94% | 1012.6 hPa | 3.05 mm | - | 0 W/m² | - |
| 1778035109 | 6.67° C | 94% | 1012.6 hPa | 4.83 mm | - | 0 W/m² | - |
| 1778034805 | 6.67° C | 94% | 1011.7 hPa | 3.56 mm | - | 0 W/m² | - |
| 1778034502 | 6.67° C | 94% | 1012.4 hPa | 1.27 mm | - | 0 W/m² | - |
| 1778034200 | 6.67° C | 94% | 1012.8 hPa | 3.05 mm | - | 0 W/m² | - |
| 1778033898 | 6.67° C | 93% | 1012.1 hPa | 4.83 mm | - | 0 W/m² | - |
| 1778033595 | 6.67° C | 93% | 1011.8 hPa | 4.32 mm | - | 0 W/m² | - |
* Rain latest hour (hover to see other rain measurements)
** Current wind speed in m/s (hover to see current wind gust speed)